Time,TemperatureF,DewpointF,PressureIn,WindDirection,WindDirectionDegrees,WindSpeedMPH,WindSpeedGustMPH,Humidity,HourlyPrecipIn,Conditions,Clouds,dailyrainin,SolarRadiationWatts/m^2,SoftwareType,DateUTC
2013-01-23 00:16:00,-17.4,-23.0,30.32,West,281,0.0,0.0,77,0.00,,,0.00,0,weatherlink.com 1.10,2013-01-23 05:16:00,
2013-01-23 01:01:00,-19.1,-24.0,30.32,West,280,0.0,0.0,77,0.00,,,0.00,0,weatherlink.com 1.10,2013-01-23 06:01:00,
2013-01-23 01:16:00,-20.2,-25.0,30.31,West,280,0.0,0.0,77,0.00,,,0.00,0,weatherlink.com 1.10,2013-01-23 06:16:00,
2013-01-23 01:31:00,-21.1,-26.0,30.32,West,281,0.0,0.0,77,0.00,,,0.00,0,weatherlink.com 1.10,2013-01-23 06:31:00,
2013-01-23 01:46:00,-21.0,-26.0,30.32,West,281,0.0,0.0,78,0.00,,,0.00,0,weatherlink.com 1.10,2013-01-23 06:46:00,
2013-01-23 02:01:00,-21.3,-26.0,30.32,West,280,0.0,0.0,77,0.00,,,0.00,0,weatherlink.com 1.10,2013-01-23 07:01:00,
2013-01-23 02:17:00,-21.3,-26.0,30.32,West,280,0.0,1.0,78,0.00,,,0.00,0,weatherlink.com 1.10,2013-01-23 07:17:00,
2013-01-23 02:32:00,-19.4,-24.0,30.32,West,281,0.0,0.0,78,0.00,,,0.00,0,weatherlink.com 1.10,2013-01-23 07:32:00,
2013-01-23 02:47:00,-20.0,-25.0,30.32,West,281,0.0,1.0,78,0.00,,,0.00,0,weatherlink.com 1.10,2013-01-23 07:47:00,
2013-01-23 03:02:00,-20.1,-25.0,30.32,West,281,0.0,0.0,78,0.00,,,0.00,0,weatherlink.com 1.10,2013-01-23 08:02:00,
2013-01-23 03:17:00,-20.1,-25.0,30.32,West,280,0.0,0.0,78,0.00,,,0.00,0,weatherlink.com 1.10,2013-01-23 08:17:00,
2013-01-23 03:32:00,-18.9,-24.0,30.32,West,280,0.0,1.0,79,0.00,,,0.00,0,weatherlink.com 1.10,2013-01-23 08:32:00,
2013-01-23 03:47:00,-18.9,-24.0,30.32,West,281,0.0,0.0,78,0.00,,,0.00,0,weatherlink.com 1.10,2013-01-23 08:47:00,
2013-01-23 04:02:00,-17.6,-22.0,30.31,West,281,0.0,0.0,78,0.00,,,0.00,0,weatherlink.com 1.10,2013-01-23 09:02:00,
2013-01-23 04:17:00,-16.5,-21.0,30.31,West,281,0.0,0.0,79,0.00,,,0.00,0,weatherlink.com 1.10,2013-01-23 09:17:00,
2013-01-23 04:32:00,-15.9,-21.0,30.30,West,280,0.0,0.0,78,0.00,,,0.00,0,weatherlink.com 1.10,2013-01-23 09:32:00,
2013-01-23 04:47:00,-15.4,-20.0,30.30,West,281,0.0,0.0,79,0.00,,,0.00,0,weatherlink.com 1.10,2013-01-23 09:47:00,
2013-01-23 05:02:00,-13.0,-18.0,30.29,NE,45,0.0,3.0,79,0.00,,,0.00,0,weatherlink.com 1.10,2013-01-23 10:02:00,
2013-01-23 05:17:00,-13.2,-18.0,30.29,NNW,327,0.0,1.0,79,0.00,,,0.00,0,weatherlink.com 1.10,2013-01-23 10:17:00,
2013-01-23 05:33:00,-12.5,-17.0,30.28,NNW,327,0.0,1.0,79,0.00,,,0.00,0,weatherlink.com 1.10,2013-01-23 10:33:00,
2013-01-23 05:48:00,-12.1,-17.0,30.28,NNW,327,0.0,0.0,79,0.00,,,0.00,0,weatherlink.com 1.10,2013-01-23 10:48:00,
2013-01-23 06:03:00,-11.3,-16.0,30.28,ENE,59,0.0,3.0,79,0.00,,,0.00,0,weatherlink.com 1.10,2013-01-23 11:03:00,
2013-01-23 06:18:00,-10.8,-16.0,30.28,ESE,109,0.0,2.0,79,0.00,,,0.00,0,weatherlink.com 1.10,2013-01-23 11:18:00,
2013-01-23 06:48:00,-10.1,-15.0,30.28,ESE,109,0.0,2.0,79,0.00,,,0.00,0,weatherlink.com 1.10,2013-01-23 11:48:00,
2013-01-23 07:03:00,-10.0,-15.0,30.28,ESE,109,0.0,1.0,79,0.00,,,0.00,0,weatherlink.com 1.10,2013-01-23 12:03:00,
2013-01-23 07:18:00,-9.8,-15.0,30.27,ESE,109,0.0,2.0,79,0.00,,,0.00,0,weatherlink.com 1.10,2013-01-23 12:18:00,
2013-01-23 07:33:00,-9.7,-15.0,30.27,East,91,0.0,3.0,79,0.00,,,0.00,0,weatherlink.com 1.10,2013-01-23 12:33:00,
2013-01-23 07:48:00,-9.8,-15.0,30.26,East,95,2.0,5.0,79,0.00,,,0.00,0,weatherlink.com 1.10,2013-01-23 12:48:00,
2013-01-23 08:03:00,-9.8,-15.0,30.26,ENE,61,3.0,5.0,79,0.00,,,0.00,0,weatherlink.com 1.10,2013-01-23 13:03:00,
2013-01-23 08:18:00,-10.1,-15.0,30.26,ENE,69,4.0,6.0,79,0.00,,,0.00,9,weatherlink.com 1.10,2013-01-23 13:18:00,
2013-01-23 08:33:00,-10.3,-15.0,30.26,ENE,66,4.0,8.0,78,0.00,,,0.00,16,weatherlink.com 1.10,2013-01-23 13:33:00,
2013-01-23 08:48:00,-10.0,-15.0,30.25,East,90,2.0,7.0,79,0.00,,,0.00,49,weatherlink.com 1.10,2013-01-23 13:48:00,
2013-01-23 09:04:00,-9.5,-14.0,30.26,ENE,78,2.0,5.0,79,0.00,,,0.00,56,weatherlink.com 1.10,2013-01-23 14:04:00,
2013-01-23 09:19:00,-9.0,-14.0,30.26,ESE,105,2.0,6.0,79,0.00,,,0.00,76,weatherlink.com 1.10,2013-01-23 14:19:00,
2013-01-23 09:34:00,-8.2,-13.0,30.26,ESE,111,2.0,5.0,79,0.00,,,0.00,79,weatherlink.com 1.10,2013-01-23 14:34:00,
2013-01-23 09:49:00,-7.7,-13.0,30.26,ENE,71,2.0,4.0,78,0.00,,,0.00,120,weatherlink.com 1.10,2013-01-23 14:49:00,
2013-01-23 10:04:00,-7.2,-12.0,30.25,ENE,63,4.0,7.0,78,0.00,,,0.00,139,weatherlink.com 1.10,2013-01-23 15:04:00,
2013-01-23 10:19:00,-6.4,-12.0,30.25,East,81,3.0,7.0,78,0.00,,,0.00,156,weatherlink.com 1.10,2013-01-23 15:19:00,
2013-01-23 10:34:00,-5.4,-11.0,30.25,East,94,3.0,5.0,78,0.00,,,0.00,171,weatherlink.com 1.10,2013-01-23 15:34:00,
2013-01-23 10:49:00,-4.6,-10.0,30.25,East,97,2.0,7.0,77,0.00,,,0.00,218,weatherlink.com 1.10,2013-01-23 15:49:00,
2013-01-23 11:04:00,-3.4,-9.0,30.25,East,82,0.0,7.0,77,0.00,,,0.00,246,weatherlink.com 1.10,2013-01-23 16:04:00,
2013-01-23 11:19:00,-2.2,-8.0,30.25,ENE,67,3.0,5.0,76,0.00,,,0.00,290,weatherlink.com 1.10,2013-01-23 16:19:00,
2013-01-23 11:34:00,-1.1,-7.0,30.24,ENE,77,1.0,7.0,76,0.00,,,0.00,248,weatherlink.com 1.10,2013-01-23 16:34:00,
2013-01-23 11:49:00,-1.0,-7.0,30.23,East,101,1.0,7.0,75,0.00,,,0.00,264,weatherlink.com 1.10,2013-01-23 16:49:00,
2013-01-23 12:04:00,0.2,-6.0,30.23,East,86,2.0,7.0,74,0.00,,,0.00,311,weatherlink.com 1.10,2013-01-23 17:04:00,
2013-01-23 12:20:00,0.8,-6.0,30.22,ENE,69,1.0,7.0,73,0.00,,,0.00,352,weatherlink.com 1.10,2013-01-23 17:20:00,
2013-01-23 12:35:00,2.0,-5.0,30.22,SSW,204,5.0,6.0,72,0.00,,,0.00,279,weatherlink.com 1.10,2013-01-23 17:35:00,
2013-01-23 12:50:00,1.4,-5.0,30.21,South,182,2.0,6.0,73,0.00,,,0.00,352,weatherlink.com 1.10,2013-01-23 17:50:00,
2013-01-23 13:05:00,2.4,-4.0,30.20,South,180,1.0,5.0,73,0.00,,,0.00,343,weatherlink.com 1.10,2013-01-23 18:05:00,
2013-01-23 13:20:00,2.9,-4.0,30.20,South,191,4.0,5.0,72,0.00,,,0.00,299,weatherlink.com 1.10,2013-01-23 18:20:00,
2013-01-23 13:35:00,3.1,-3.0,30.19,South,186,3.0,6.0,74,0.00,,,0.00,269,weatherlink.com 1.10,2013-01-23 18:35:00,
2013-01-23 13:50:00,4.1,-3.0,30.19,South,182,1.0,3.0,74,0.00,,,0.00,257,weatherlink.com 1.10,2013-01-23 18:50:00,
2013-01-23 14:05:00,5.0,-2.0,30.18,ESE,110,2.0,4.0,72,0.00,,,0.00,244,weatherlink.com 1.10,2013-01-23 19:05:00,
2013-01-23 14:20:00,5.2,-2.0,30.18,East,85,2.0,7.0,72,0.00,,,0.00,213,weatherlink.com 1.10,2013-01-23 19:20:00,
2013-01-23 14:35:00,5.4,-2.0,30.18,East,88,2.0,7.0,71,0.00,,,0.00,207,weatherlink.com 1.10,2013-01-23 19:35:00,
2013-01-23 14:50:00,5.7,-2.0,30.18,East,81,2.0,5.0,71,0.00,,,0.00,183,weatherlink.com 1.10,2013-01-23 19:50:00,
2013-01-23 15:05:00,5.8,-2.0,30.18,East,83,2.0,7.0,70,0.00,,,0.00,169,weatherlink.com 1.10,2013-01-23 20:05:00,
2013-01-23 15:20:00,6.2,-2.0,30.18,ESE,105,2.0,6.0,70,0.00,,,0.00,146,weatherlink.com 1.10,2013-01-23 20:20:00,
2013-01-23 15:35:00,6.3,-1.0,30.18,ESE,117,0.0,6.0,71,0.00,,,0.00,121,weatherlink.com 1.10,2013-01-23 20:35:00,
2013-01-23 15:51:00,6.4,-1.0,30.18,ESE,117,3.0,5.0,71,0.00,,,0.00,100,weatherlink.com 1.10,2013-01-23 20:51:00,
2013-01-23 16:06:00,6.4,-1.0,30.19,ESE,108,0.0,7.0,71,0.00,,,0.00,76,weatherlink.com 1.10,2013-01-23 21:06:00,
2013-01-23 16:21:00,6.4,-1.0,30.19,East,88,5.0,6.0,71,0.00,,,0.00,56,weatherlink.com 1.10,2013-01-23 21:21:00,
2013-01-23 16:36:00,6.5,-1.0,30.20,East,91,3.0,6.0,72,0.00,,,0.00,37,weatherlink.com 1.10,2013-01-23 21:36:00,
2013-01-23 16:51:00,6.4,-1.0,30.20,ESE,114,0.0,4.0,72,0.00,,,0.00,25,weatherlink.com 1.10,2013-01-23 21:51:00,
2013-01-23 17:06:00,6.4,-1.0,30.20,SSE,165,0.0,4.0,73,0.00,,,0.00,12,weatherlink.com 1.10,2013-01-23 22:06:00,
2013-01-23 17:21:00,6.2,-1.0,30.21,SSE,165,0.0,3.0,73,0.00,,,0.00,5,weatherlink.com 1.10,2013-01-23 22:21:00,
2013-01-23 17:36:00,6.1,-1.0,30.21,SE,144,0.0,3.0,74,0.00,,,0.00,0,weatherlink.com 1.10,2013-01-23 22:36:00,
2013-01-23 17:51:00,6.0,-1.0,30.22,SE,144,0.0,1.0,74,0.00,,,0.00,0,weatherlink.com 1.10,2013-01-23 22:51:00,
2013-01-23 18:06:00,6.0,0.0,30.23,East,95,3.0,3.0,75,0.00,,,0.00,0,weatherlink.com 1.10,2013-01-23 23:06:00,
2013-01-23 18:21:00,6.0,0.0,30.23,East,94,0.0,2.0,77,0.00,,,0.00,0,weatherlink.com 1.10,2013-01-23 23:21:00,
2013-01-23 18:36:00,5.9,0.0,30.23,East,94,0.0,0.0,77,0.00,,,0.00,0,weatherlink.com 1.10,2013-01-23 23:36:00,
2013-01-23 18:51:00,5.9,0.0,30.24,East,94,0.0,2.0,78,0.00,,,0.00,0,weatherlink.com 1.10,2013-01-23 23:51:00,
2013-01-23 19:07:00,5.8,1.0,30.24,East,93,2.0,3.0,79,0.00,,,0.00,0,weatherlink.com 1.10,2013-01-24 00:07:00,
2013-01-23 19:22:00,5.5,1.0,30.25,East,93,0.0,3.0,80,0.00,,,0.00,0,weatherlink.com 1.10,2013-01-24 00:22:00,
2013-01-23 19:37:00,5.4,1.0,30.25,NNE,18,3.0,4.0,80,0.00,,,0.00,0,weatherlink.com 1.10,2013-01-24 00:37:00,
2013-01-23 19:52:00,5.3,1.0,30.26,ENE,61,0.0,5.0,81,0.00,,,0.00,0,weatherlink.com 1.10,2013-01-24 00:52:00,
2013-01-23 20:07:00,4.9,0.0,30.27,ENE,66,0.0,4.0,81,0.00,,,0.00,0,weatherlink.com 1.10,2013-01-24 01:07:00,
2013-01-23 20:22:00,4.5,0.0,30.27,ENE,66,1.0,2.0,81,0.00,,,0.00,0,weatherlink.com 1.10,2013-01-24 01:22:00,
2013-01-23 20:37:00,4.4,0.0,30.28,ENE,66,0.0,2.0,81,0.00,,,0.00,0,weatherlink.com 1.10,2013-01-24 01:37:00,
2013-01-23 20:52:00,4.2,0.0,30.29,ENE,65,0.0,3.0,81,0.00,,,0.00,0,weatherlink.com 1.10,2013-01-24 01:52:00,
2013-01-23 21:07:00,3.6,-1.0,30.29,ENE,65,0.0,0.0,81,0.00,,,0.00,0,weatherlink.com 1.10,2013-01-24 02:07:00,
2013-01-23 21:22:00,2.5,-2.0,30.30,ENE,66,0.0,0.0,81,0.00,,,0.00,0,weatherlink.com 1.10,2013-01-24 02:22:00,
2013-01-23 21:37:00,1.7,-3.0,30.31,ENE,66,0.0,1.0,81,0.00,,,0.00,0,weatherlink.com 1.10,2013-01-24 02:37:00,
2013-01-23 21:52:00,1.1,-3.0,30.32,ENE,65,0.0,0.0,82,0.00,,,0.00,0,weatherlink.com 1.10,2013-01-24 02:52:00,
2013-01-23 22:07:00,-0.1,-4.0,30.33,ENE,65,0.0,1.0,82,0.00,,,0.00,0,weatherlink.com 1.10,2013-01-24 03:07:00,
2013-01-23 22:22:00,-1.3,-6.0,30.33,ENE,66,0.0,0.0,82,0.00,,,0.00,0,weatherlink.com 1.10,2013-01-24 03:22:00,
2013-01-23 22:37:00,-3.0,-7.0,30.34,ENE,66,0.0,0.0,81,0.00,,,0.00,0,weatherlink.com 1.10,2013-01-24 03:37:00,
2013-01-23 22:53:00,-1.9,-6.0,30.35,ENE,66,0.0,1.0,83,0.00,,,0.00,0,weatherlink.com 1.10,2013-01-24 03:53:00,
2013-01-23 23:08:00,-1.4,-5.0,30.36,NE,42,0.0,3.0,83,0.00,,,0.00,0,weatherlink.com 1.10,2013-01-24 04:08:00,
2013-01-23 23:23:00,0.4,-4.0,30.37,ENE,63,4.0,7.0,83,0.00,,,0.00,0,weatherlink.com 1.10,2013-01-24 04:23:00,
2013-01-23 23:38:00,0.3,-4.0,30.38,North,10,3.0,11.0,81,0.00,,,0.00,0,weatherlink.com 1.10,2013-01-24 04:38:00,
2013-01-23 23:53:00,-0.9,-6.0,30.39,NNE,29,1.0,6.0,80,0.00,,,0.00,0,weatherlink.com 1.10,2013-01-24 04:53:00,